Terug naar catalogus

STARLINK-34576

ActiefCommunicatieVLEO
NORAD 64701·PAYLOAD·🇺🇸 United States

Gelanceerd Jun 28, 2025 vanaf Vandenberg Space Force Base

Loading…

Volgende Passages (komende 24 uur)

TLE

VersSource: CelesTrak SupGP

Epoch: Sep 14, 2026, 22:55 UTC

1 64701C 25142F   26257.95534722 -.00042926  00000+0 -14927-2 0  2577
2 64701  70.0017 195.4464 0003202 266.5262 159.1202 15.29612150    17

Volg STARLINK-34576 in realtime met AllMySat

Download on the App Store